Location: Cambridge
(43.3830°N, 80.3170°W)
Time: 19:47:54
(UTC-04:00)

Tiangong 2 - Visible Passes

Search period start: 19 March 2019 00:00
Search period end: 29 March 2019 00:00
Orbit: 379 x 390 km, 42.8° (Epoch: 19 March)

Date Brightness Start Highest point End Pass type
(mag) Time Alt. Az. Time Alt. Az. Time Alt. Az.
19 Mar 3.6 05:04:57 21° E 05:04:57 21° E 05:06:08 10° E visible
19 Mar 1.5 06:37:11 15° W 06:39:37 48° SSW 06:42:42 10° ESE visible
20 Mar 1.3 05:40:31 59° SSE 05:40:31 59° SSE 05:43:22 10° ESE visible
21 Mar 4.5 04:43:55 10° E 04:43:55 10° E 04:43:55 10° E visible
21 Mar 2.0 06:16:09 24° WSW 06:17:18 32° SSW 06:20:12 10° SE visible
22 Mar 3.1 05:19:39 22° SE 05:19:39 22° SE 05:21:00 10° ESE visible
22 Mar 3.2 06:52:34 10° WSW 06:54:12 13° SSW 06:55:48 10° S visible
23 Mar 2.8 05:55:31 20° S 05:55:31 20° S 05:57:24 10° SSE visible
